Location: Cazarilh
(42.9578°N, 0.5819°E)
Time: 01:49:35
(UTC+00:00)

Cosmos 1461 - Pass Details

Date: 11 December 2019
Orbit: 518 x 649 km, 65.0° (Epoch: 25 January)

Event Time Altitude Azimuth Distance (km) Brightness Sun altitude
Exits shadow 05:17:02 37° 217° (SW) 929 3.7 -21.4°
Drops below altitude 10° 05:20:26 10° 173° (S) 1,956 5.8 -20.8°
Sets 05:22:50 0° 166° (SSE) 2,877 6.8 -20.3°
